| time (UTC) | temp F | wind direction | speed MPH | gust MPH | rain 1hr in | rain 24hr in | rain mn in | humidity % | barometer mb |
| 20260510174551 | 0 | 360 | 1.0 | 4.0 | 0.00 | 0.13 | 0.00 | 1004.6 | |
| 20260510173046 | 0 | 0.0 | 0.0 | 0.00 | 0.13 | 0.00 | 1004.7 | ||
| 20260510171543 | 68 | 360 | 2.0 | 4.0 | 0.00 | 0.13 | 0.00 | 71 | 1004.5 |
| 20260510170043 | 0 | 0.0 | 0.0 | 0.00 | 0.13 | 0.00 | 1004.4 | ||
| 20260510164545 | 0 | 0.0 | 0.0 | 0.00 | 0.13 | 0.00 | 1004.6 | ||
| 20260510163030 | 65 | 360 | 1.0 | 4.0 | 0.00 | 0.13 | 0.00 | 80 | 1004.9 |
| 20260510161527 | 64 | 360 | 0.0 | 3.0 | 0.00 | 0.13 | 0.00 | 83 | 1005.0 |
| 20260510160126 | 63 | 360 | 0.0 | 4.0 | 0.00 | 0.13 | 0.00 | 84 | 1004.9 |
| 20260510154540 | 62 | 360 | 1.0 | 3.0 | 0.00 | 0.13 | 0.00 | 84 | 1004.9 |
| 20260510153023 | 61 | 360 | 1.0 | 3.0 | 0.00 | 0.13 | 0.00 | 88 | 1005.2 |
| 20260510151516 | 60 | 360 | 0.0 | 3.0 | 0.00 | 0.13 | 0.00 | 89 | 1005.2 |
| 20260510150112 | 58 | 360 | 0.0 | 0.0 | 0.00 | 0.13 | 0.00 | 91 | 1005.2 |
| 20260510144515 | 57 | 360 | 0.0 | 0.0 | 0.00 | 0.13 | 0.00 | 93 | 1005.4 |
| 20260510143007 | 56 | 360 | 0.0 | 0.0 | 0.00 | 0.13 | 0.00 | 96 | 1005.2 |
| 20260510141501 | 0 | 0.0 | 0.0 | 0.00 | 0.13 | 0.00 | 1005.2 | ||
| 20260510140059 | 53 | 360 | 0.0 | 0.0 | 0.00 | 0.13 | 0.00 | 97 | 1005.4 |
| 20260510134604 | 53 | 360 | 0.0 | 0.0 | 0.00 | 0.13 | 0.00 | 97 | 1005.4 |
| 20260510133055 | 52 | 360 | 0.0 | 0.0 | 0.00 | 0.13 | 0.00 | 98 | 1005.1 |
| 20260510131554 | 52 | 360 | 0.0 | 0.0 | 0.00 | 0.13 | 0.00 | 98 | 1004.7 |
| 20260510130059 | 52 | 360 | 0.0 | 0.0 | 0.00 | 0.13 | 0.00 | 98 | 1005.0 |
| 20260510124550 | 51 | 360 | 0.0 | 0.0 | 0.00 | 0.13 | 0.00 | 97 | 1004.9 |
| 20260510123053 | 51 | 360 | 0.0 | 0.0 | 0.00 | 0.13 | 0.00 | 97 | 1004.9 |
| 20260510121545 | 51 | 360 | 0.0 | 0.0 | 0.00 | 0.13 | 0.00 | 98 | 1005.0 |
| 20260510120042 | 51 | 360 | 0.0 | 0.0 | 0.00 | 0.13 | 0.00 | 98 | 1004.7 |
| 20260510114543 | 51 | 360 | 0.0 | 0.0 | 0.00 | 0.13 | 0.00 | 97 | 1004.4 |
| 20260510113037 | 51 | 360 | 0.0 | 0.0 | 0.00 | 0.13 | 0.00 | 97 | 1004.4 |
| 20260510111536 | 50 | 360 | 0.0 | 0.0 | 0.00 | 0.13 | 0.00 | 97 | 1004.2 |
| 20260510110036 | 50 | 360 | 0.0 | 0.0 | 0.00 | 0.13 | 0.00 | 97 | 1004.1 |
| 20260510104536 | 50 | 360 | 0.0 | 0.0 | 0.00 | 0.13 | 0.00 | 97 | 1004.2 |
| 20260510103036 | 50 | 360 | 0.0 | 0.0 | 0.00 | 0.13 | 0.00 | 97 | 1003.9 |
| 20260510101533 | 50 | 360 | 0.0 | 0.0 | 0.00 | 0.13 | 0.00 | 97 | 1003.9 |
| 20260510100033 | 50 | 360 | 0.0 | 0.0 | 0.00 | 0.13 | 0.00 | 97 | 1003.8 |
| 20260510094536 | 50 | 360 | 0.0 | 2.0 | 0.00 | 0.13 | 0.00 | 97 | 1003.5 |
| 20260510093033 | 50 | 360 | 0.0 | 0.0 | 0.00 | 0.13 | 0.00 | 96 | 1003.7 |
| 20260510091532 | 50 | 360 | 0.0 | 2.0 | 0.00 | 0.13 | 0.00 | 96 | 1003.5 |
| 20260510090031 | 50 | 360 | 0.0 | 2.0 | 0.00 | 0.13 | 0.00 | 97 | 1003.7 |
| 20260510084530 | 50 | 360 | 0.0 | 2.0 | 0.00 | 0.13 | 0.00 | 97 | 1003.8 |
| 20260510083126 | 50 | 360 | 0.0 | 1.0 | 0.00 | 0.13 | 0.00 | 97 | 1004.1 |
| 20260510081525 | 50 | 360 | 0.0 | 1.0 | 0.00 | 0.13 | 0.00 | 97 | 1004.0 |
| 20260510080033 | 50 | 360 | 0.0 | 0.0 | 0.00 | 0.13 | 0.00 | 97 | 1003.9 |
| 20260510074524 | 50 | 360 | 0.0 | 2.0 | 0.00 | 0.13 | 0.00 | 97 | 1003.9 |
| 20260510073027 | 50 | 360 | 0.0 | 1.0 | 0.00 | 0.13 | 0.00 | 97 | 1003.7 |
| 20260510071521 | 50 | 360 | 0.0 | 1.0 | 0.00 | 0.13 | 0.00 | 97 | 1003.6 |
| 20260510070020 | 51 | 360 | 0.0 | 0.0 | 0.00 | 0.13 | 0.00 | 97 | 1003.6 |
| 20260510064537 | 51 | 360 | 0.0 | 0.0 | 0.00 | 0.13 | 0.00 | 96 | 1003.8 |
| 20260510063025 | 51 | 360 | 0.0 | 1.0 | 0.00 | 0.13 | 0.00 | 97 | 1003.8 |
| 20260510061518 | 51 | 360 | 0.0 | 0.0 | 0.00 | 0.13 | 0.00 | 97 | 1003.8 |
| 20260510060015 | 51 | 360 | 0.0 | 0.0 | 0.00 | 0.13 | 0.00 | 96 | 1003.4 |
| 20260510054515 | 51 | 360 | 0.0 | 1.0 | 0.00 | 0.13 | 0.00 | 96 | 1003.4 |
| 20260510053034 | 51 | 360 | 0.0 | 1.0 | 0.00 | 0.13 | 0.00 | 96 | 1003.5 |
| 20260510051513 | 51 | 360 | 0.0 | 0.0 | 0.00 | 0.13 | 0.00 | 96 | 1003.7 |
| 20260510050012 | 51 | 360 | 0.0 | 1.0 | 0.00 | 0.13 | 0.00 | 96 | 1003.6 |
| 20260510044511 | 51 | 360 | 0.0 | 0.0 | 0.00 | 0.13 | 0.00 | 96 | 1003.6 |
| 20260510043010 | 51 | 360 | 0.0 | 0.0 | 0.00 | 0.13 | 0.00 | 96 | 1003.6 |
| 20260510041509 | 51 | 360 | 0.0 | 1.0 | 0.00 | 0.13 | 0.00 | 96 | 1003.6 |
| 20260510040006 | 51 | 360 | 0.0 | 1.0 | 0.00 | 0.13 | 0.13 | 96 | 1003.4 |
| 20260510034506 | 51 | 360 | 0.0 | 0.0 | 0.00 | 0.13 | 0.13 | 96 | 1003.4 |
| 20260510033005 | 51 | 360 | 0.0 | 0.0 | 0.00 | 0.13 | 0.13 | 96 | 1003.5 |
| 20260510031505 | 51 | 360 | 0.0 | 0.0 | 0.00 | 0.13 | 0.13 | 96 | 1003.7 |
| 20260510030004 | 52 | 360 | 0.0 | 1.0 | 0.00 | 0.13 | 0.13 | 96 | 1003.6 |
| 20260510024504 | 52 | 360 | 0.0 | 0.0 | 0.00 | 0.13 | 0.13 | 96 | 1003.7 |
| 20260510023004 | 52 | 360 | 0.0 | 1.0 | 0.00 | 0.13 | 0.13 | 96 | 1003.7 |
| 20260510021502 | 52 | 360 | 0.0 | 0.0 | 0.00 | 0.13 | 0.13 | 96 | 1003.5 |
| 20260510020002 | 52 | 360 | 0.0 | 0.0 | 0.00 | 0.13 | 0.13 | 96 | 1003.4 |
| 20260510014502 | 52 | 360 | 0.0 | 0.0 | 0.00 | 0.13 | 0.13 | 96 | 1003.3 |
| 20260510013001 | 52 | 360 | 0.0 | 1.0 | 0.00 | 0.13 | 0.13 | 96 | 1003.5 |
| 20260510011502 | 52 | 360 | 0.0 | 1.0 | 0.00 | 0.13 | 0.13 | 96 | 1003.4 |
| 20260510010100 | 52 | 360 | 0.0 | 1.0 | 0.01 | 0.13 | 0.13 | 96 | 1003.2 |
| 20260510004600 | 52 | 360 | 0.0 | 1.0 | 0.01 | 0.13 | 0.13 | 95 | 1002.8 |
| 20260510003107 | 52 | 360 | 0.0 | 1.0 | 0.01 | 0.13 | 0.13 | 95 | 1002.8 |
| 20260510001559 | 52 | 360 | 0.0 | 2.0 | 0.01 | 0.13 | 0.13 | 96 | 1002.5 |
| 20260510000126 | 52 | 360 | 0.0 | 2.0 | 0.00 | 0.12 | 0.12 | 96 | 1002.4 |
| 20260509234558 | 52 | 360 | 1.0 | 3.0 | 0.00 | 0.12 | 0.12 | 96 | 1002.5 |
| 20260509233057 | 52 | 360 | 0.0 | 2.0 | 0.00 | 0.12 | 0.12 | 95 | 1002.7 |
| 20260509231601 | 0 | 0.0 | 0.0 | 0.00 | 0.12 | 0.12 | 1002.6 | ||
| 20260509230057 | 0 | 0.0 | 0.0 | 0.00 | 0.12 | 0.12 | 1002.6 | ||
| 20260509224547 | 0 | 0.0 | 0.0 | 0.00 | 0.12 | 0.12 | 1002.8 | ||
| 20260509223045 | 0 | 0.0 | 0.0 | 0.03 | 0.12 | 0.12 | 1003.0 | ||
| 20260509221538 | 0 | 0.0 | 0.0 | 0.08 | 0.12 | 0.12 | 1003.4 | ||
| 20260509220042 | 0 | 0.0 | 0.0 | 0.09 | 0.12 | 0.12 | 1003.5 | ||
| 20260509214631 | 53 | 360 | 0.0 | 1.0 | 0.10 | 0.12 | 0.12 | 93 | 1003.3 |
| 20260509213030 | 53 | 360 | 1.0 | 3.0 | 0.06 | 0.08 | 0.08 | 93 | 1003.7 |
| 20260509211528 | 54 | 360 | 1.0 | 6.0 | 0.02 | 0.04 | 0.04 | 93 | 1003.7 |
| 20260509210028 | 55 | 360 | 0.0 | 1.0 | 0.02 | 0.03 | 0.03 | 94 | 1003.3 |
| 20260509204527 | 55 | 360 | 0.0 | 1.0 | 0.02 | 0.02 | 0.02 | 93 | 1003.2 |
| 20260509203035 | 55 | 360 | 0.0 | 2.0 | 0.02 | 0.02 | 0.02 | 93 | 1003.3 |
| 20260509201526 | 55 | 360 | 0.0 | 1.0 | 0.02 | 0.02 | 0.02 | 93 | 1003.5 |
| 20260509200033 | 55 | 360 | 0.0 | 2.0 | 0.01 | 0.01 | 0.01 | 91 | 1003.6 |
| 20260509194539 | 55 | 360 | 1.0 | 4.0 | 0.00 | 0.00 | 0.00 | 90 | 1003.6 |
| 20260509193025 | 56 | 360 | 1.0 | 5.0 | 0.00 | 0.00 | 0.00 | 91 | 1003.8 |
| 20260509191524 | 57 | 360 | 0.0 | 1.0 | 0.00 | 0.00 | 0.00 | 88 | 1003.7 |
| 20260509190022 | 57 | 360 | 0.0 | 0.0 | 0.00 | 0.00 | 0.00 | 88 | 1003.6 |
| 20260509184522 | 57 | 360 | 0.0 | 2.0 | 0.00 | 0.00 | 0.00 | 86 | 1003.5 |
| 20260509183022 | 57 | 360 | 0.0 | 3.0 | 0.00 | 0.00 | 0.00 | 85 | 1003.4 |
| 20260509181521 | 58 | 360 | 0.0 | 2.0 | 0.00 | 0.00 | 0.00 | 85 | 1003.2 |
| 20260509180018 | 0 | 0.0 | 0.0 | 0.00 | 0.00 | 0.00 | 1003.3 |